Regional Weather Roundup
Issued by NWS

Home | Current Version | Previous Version | Text Only | Print | Product List | Glossary Off
Versions: 1 2 3 4 5 6 7 8 9 10 11 12 13 14 15 16 17 18 19 20 21 22 23 24 25 26 27 28 29 30 31 32 33 34 35 36 37 38 39 40 41 42 43 44 45 46 47 48 49 50

000
ASUS43 KOAX 261010
RWRNE

WEATHER ROUNDUP FOR NEBRASKA
NATIONAL WEATHER SERVICE OMAHA NE
500 AM CDT FRI AUG 26 2016

NOTES: SATELLITE DATA IS BEING USED TO AUGMENT CLOUD COVER ABOVE
       12000 FEET.
       "FAIR" INDICATES FEW OR NO CLOUDS BELOW 12,000 FEET WITH NO
       SIGNIFICANT WEATHER AND/OR OBSTRUCTIONS TO VISIBILITY.

  * THESE STATIONS DO NOT REPORT WEATHER SUCH AS RAIN...SNOW OR FOG.

NEZ001>004-019>022-054>056-261100-
NEBRASKA PANHANDLE

CITY           SKY/WX    TMP DP  RH WIND       PRES   REMARKS
SCOTTSBLUFF    CLOUDY    56  49  77 SE8       30.15F
ALLIANCE       FAIR      52  48  86 SE8       30.16F
CHADRON        CLOUDY    56  47  71 NE8       30.15F
KIMBALL        FAIR      56  52  86 SE9       30.17S
SIDNEY         MOCLDY    57  52  83 S10       30.18F
$$

NEZ057>060-069>072-079>082-261100-
SOUTHWEST NEBRASKA

CITY           SKY/WX    TMP DP  RH WIND       PRES   REMARKS
NORTH PLATTE   FAIR      52  50  93 E5        30.18F
IMPERIAL       FAIR      54  50  86 S3        30.19R
LEXINGTON      FAIR      54  52  95 CALM      30.17F
MCCOOK         FAIR      55  52  89 N3        30.17R
OGALLALA       FAIR      55  50  83 SE3       30.18S
$$

NEZ005>010-023>029-035>040-094-261100-
NORTH CENTRAL NEBRASKA

CITY           SKY/WX    TMP DP  RH WIND       PRES   REMARKS
VALENTINE      FAIR      46  43  89 CALM      30.19F
AINSWORTH      FAIR      48  47  97 CALM      30.18F
BROKEN BOW     FAIR      49  48  97 CALM      30.17F
O`NEILL        FAIR      52  49  90 CALM      30.18S
ORD            FAIR      52  49  89 S5        30.16F
THEDFORD       FAIR      49  48  95 CALM      30.19F
$$

NEZ041-046>049-061>064-073>077-083>087-261100-
SOUTH CENTRAL NEBRASKA

CITY           SKY/WX    TMP DP  RH WIND       PRES   REMARKS
GRAND ISLAND   FAIR      55  53  93 N5        30.17R
AURORA         FAIR      56  55  99 NE3       30.16R
HASTINGS       FAIR      58  55  90 E5        30.17R
HEBRON         MOCLDY    60  58  93 CALM      30.15R
HOLDREGE       FAIR      55  54  95 NE3       30.17R
KEARNEY *      FAIR      57  54  88 CALM      30.17R
YORK           LGT RAIN  55  54  94 CALM      30.16S
$$

NEZ011>018-030>034-042>045-261100-
NORTHEAST NEBRASKA

CITY           SKY/WX    TMP DP  RH WIND       PRES   REMARKS
NORFOLK        FAIR      54  53  97 CALM      30.17R
ALBION         FAIR      53  51  92 CALM      30.17R
BLAIR          FAIR      59  57  93 N5        30.15S
FREMONT        FAIR      56  55  97 CALM      30.17R
TEKAMAH        FAIR      54  53  97 NW3       30.16R
WAYNE          FAIR      52  51  98 CALM      30.17S
$$

NEZ050>053-065>068-078-088>093-261100-
SOUTHEAST NEBRASKA

CITY           SKY/WX    TMP DP  RH WIND       PRES   REMARKS
LINCOLN        FAIR      59  56  89 N3        30.15S
OMAHA EPPLEY   MOCLDY    59  56  89 N3        30.15R
BEATRICE       FAIR      61  59  94 NE5       30.14R
FALLS CITY     MOCLDY    64  62  93 N5        30.11S
NEBRASKA CITY  FAIR      61  61 100 N3        30.14S
PLATTSMOUTH    FAIR      61  59  94 N5        30.15S
$$

NEZ044-045-051>053-067-261100-
OMAHA AREA

CITY           SKY/WX    TMP DP  RH WIND       PRES   REMARKS
OMAHA EPPLEY   MOCLDY    59  56  89 N3        30.15R
BLAIR          FAIR      59  57  93 N5        30.15S
FREMONT        FAIR      56  55  97 CALM      30.17R
MILLARD        FAIR      60  58  94 CALM      30.15S
OFFUTT AFB     FAIR      61  60  95 NE5       30.14S
PLATTSMOUTH    FAIR      61  59  94 N5        30.15S
WAHOO          FAIR      56  55  95 N5        30.15S
$$




USA.gov is the U.S. government's official web portal to all federal, state and local government web resources and services.